Weather History for Savanna, IL

Change the Weather History Date:

Friday, February 1, 2013

  Actual Average (KCWI) Record (KCWI)
Temperature  
Mean Temperature 6 °F -  
Max Temperature 15 °F 32 °F 62 °F (1989)
Min Temperature -3 °F 13 °F -20 °F (1985)
Degree Days  
Heating Degree Days 59    
Moisture  
Dew Point -3 °F    
Average Humidity 71    
Maximum Humidity 90    
Minimum Humidity 62    
Precipitation  
Precipitation 0.00 in - - ()
Sea Level Pressure  
Sea Level Pressure 30.29 in    
Wind  
Wind Speed 10 mph (WSW)    
Max Wind Speed 16 mph    
Max Gust Speed 22 mph    
Visibility 9 miles    
Events Snow    
Averages and records for this station are not official NWS values.
T = Trace of Precipitation, MM = Missing Value Source: NWS Daily Summary

Daily Weather History Graph

Daily Weather History Graph

Search for Another Location

Airport:

Trip Planner

Search our weather history database for the weather conditions in past years. The results will help you decide how hot, cold, wet, or windy it might be!

Date:

Astronomy

Feb. 01, 2013 Rise Set
Actual Time 7:13 AM CST 5:15 PM CST
Civil Twilight 6:43 AM CST 5:45 PM CST
Nautical Twilight 6:10 AM CST 6:18 PM CST
Astronomical Twilight 5:37 AM CST 6:51 PM CST
Moon 11:30 PM CST (2/1) 9:39 AM CST (2/1)
Length of Visible Light 11h 01m
Length of Day
10h 02m
Waning Gibbous, 70% of the Moon is Illuminated
Feb 1
Waning Gibbous
Feb 3
Last Quarter
Feb 10
New
Feb 17
First Quarter
Feb 25
Full

Hourly Weather History & Observations

Time (CST) Temp. Windchill Dew Point Humidity Pressure Visibility Wind Dir Wind Speed Gust Speed Precip Events Conditions
12:15 AM 0.7 °F -16.2 °F -6.7 °F 71% 30.26 in 10.0 mi West 11.5 mph - N/A   Clear
12:35 AM 0.5 °F -18.0 °F -7.1 °F 70% 30.27 in 10.0 mi West 13.8 mph - N/A   Clear
12:55 AM 0.5 °F -19.4 °F -6.7 °F 72% 30.28 in 10.0 mi West 16.1 mph 19.6 mph N/A   Clear
1:15 AM 0.3 °F -17.5 °F -7.2 °F 70% 30.29 in 10.0 mi West 12.7 mph 21.9 mph N/A   Clear
1:35 AM 0.3 °F -17.5 °F -6.7 °F 72% 30.29 in 10.0 mi West 12.7 mph 19.6 mph N/A   Clear
1:55 AM -0.0 °F -18.0 °F -6.9 °F 73% 30.30 in 10.0 mi WNW 12.7 mph 21.9 mph N/A   Clear
2:15 AM -0.2 °F -20.3 °F -7.4 °F 72% 30.31 in 10.0 mi WNW 16.1 mph 21.9 mph N/A   Clear
2:35 AM -0.4 °F -18.4 °F -6.9 °F 74% 30.32 in 10.0 mi West 12.7 mph 18.4 mph N/A   Clear
2:55 AM -0.6 °F -17.8 °F -7.6 °F 72% 30.32 in 10.0 mi West 11.5 mph 19.6 mph N/A   Clear
3:15 AM -0.9 °F -16.4 °F -8.0 °F 72% 30.32 in 10.0 mi WNW 9.2 mph - N/A   Clear
3:35 AM -1.3 °F -16.8 °F -8.1 °F 73% 30.32 in 10.0 mi West 9.2 mph - N/A   Clear
3:55 AM -1.5 °F -19.0 °F -8.7 °F 71% 30.32 in 10.0 mi WNW 11.5 mph 17.3 mph N/A   Clear
4:15 AM -1.5 °F -18.1 °F -8.7 °F 71% 30.33 in 10.0 mi West 10.4 mph - N/A   Clear
4:35 AM -1.8 °F -19.4 °F -9.2 °F 71% 30.33 in 10.0 mi WNW 11.5 mph 16.1 mph N/A   Clear
4:55 AM -2.2 °F -18.0 °F -9.2 °F 72% 30.34 in 10.0 mi West 9.2 mph 16.1 mph N/A   Clear
5:15 AM -2.2 °F -18.9 °F -9.4 °F 71% 30.35 in 10.0 mi West 10.4 mph - N/A   Clear
5:35 AM -2.4 °F -19.2 °F -9.4 °F 72% 30.35 in 10.0 mi West 10.4 mph 16.1 mph N/A   Clear
5:55 AM -2.6 °F -18.4 °F -9.4 °F 73% 30.35 in 10.0 mi WNW 9.2 mph - N/A   Clear
6:15 AM -2.6 °F -17.3 °F -9.6 °F 72% 30.36 in 10.0 mi West 8.1 mph - N/A   Clear
6:35 AM -2.9 °F -18.8 °F -9.6 °F 73% 30.36 in 10.0 mi West 9.2 mph - N/A   Clear
6:55 AM -3.1 °F -17.9 °F -9.6 °F 74% 30.37 in 10.0 mi West 8.1 mph - N/A   Clear
7:15 AM -3.1 °F -21.0 °F -9.9 °F 73% 30.37 in 10.0 mi West 11.5 mph 16.1 mph N/A   Clear
7:35 AM -3.3 °F -20.3 °F -10.3 °F 72% 30.37 in 10.0 mi WNW 10.4 mph - N/A   Clear
7:55 AM -3.1 °F -19.1 °F -10.5 °F 71% 30.37 in 10.0 mi West 9.2 mph - N/A   Clear
8:15 AM -3.1 °F -20.1 °F -10.8 °F 70% 30.37 in 10.0 mi WNW 10.4 mph - N/A   Clear
8:35 AM -2.6 °F -20.3 °F -10.8 °F 68% 30.38 in 10.0 mi West 11.5 mph - N/A   Clear
8:55 AM -2.2 °F -16.8 °F -10.5 °F 68% 30.38 in 10.0 mi West 8.1 mph - N/A   Clear
9:15 AM -1.8 °F -17.5 °F -10.8 °F 66% 30.39 in 10.0 mi WNW 9.2 mph - N/A   Clear
9:35 AM -1.5 °F -18.1 °F -10.7 °F 65% 30.39 in 10.0 mi West 10.4 mph - N/A   Clear
9:55 AM -0.9 °F -15.3 °F -10.1 °F 65% 30.39 in 10.0 mi WNW 8.1 mph - N/A   Clear
10:15 AM -0.6 °F -16.0 °F -9.9 °F 65% 30.39 in 10.0 mi West 9.2 mph - N/A   Clear
10:35 AM -0.2 °F -16.5 °F -9.4 °F 65% 30.39 in 10.0 mi WSW 10.4 mph - N/A   Clear
10:55 AM 0.9 °F -15.1 °F -8.1 °F 66% 30.39 in 10.0 mi WSW 10.4 mph - N/A   Clear
11:15 AM 1.6 °F -12.2 °F -7.8 °F 65% 30.39 in 10.0 mi WSW 8.1 mph - N/A   Clear
11:35 AM 1.6 °F -12.2 °F -8.3 °F 63% 30.38 in 10.0 mi West 8.1 mph - N/A   Clear
11:55 AM 2.3 °F -10.2 °F -7.6 °F 63% 30.38 in 10.0 mi West 6.9 mph - N/A   Clear
12:15 PM 3.0 °F -11.5 °F -6.9 °F 63% 30.37 in 10.0 mi West 9.2 mph - N/A   Clear
12:35 PM 3.6 °F -10.9 °F -5.8 °F 65% 30.36 in 10.0 mi SW 9.2 mph - N/A   Clear
12:55 PM 3.7 °F -9.6 °F -6.5 °F 62% 30.34 in 10.0 mi WSW 8.1 mph - N/A   Clear
1:15 PM 4.8 °F -9.3 °F -4.7 °F 65% 30.34 in 10.0 mi SW 9.2 mph - N/A   Clear
1:35 PM 5.0 °F -8.1 °F -5.4 °F 62% 30.33 in 10.0 mi SW 8.1 mph - N/A   Clear
1:55 PM 5.7 °F -8.2 °F -4.5 °F 63% 30.32 in 10.0 mi SW 9.2 mph - N/A   Clear
2:15 PM 5.9 °F -8.0 °F -4.5 °F 62% 30.30 in 10.0 mi WSW 9.2 mph - N/A   Clear
2:35 PM 6.3 °F -5.4 °F -3.8 °F 63% 30.30 in 10.0 mi SW 6.9 mph - N/A   Clear
2:55 PM 6.8 °F -7.8 °F -3.3 °F 63% 30.30 in 10.0 mi SW 10.4 mph - N/A   Clear
3:15 PM 6.8 °F -10.0 °F -2.6 °F 66% 30.31 in 10.0 mi SW 13.8 mph - N/A   Clear
3:35 PM 6.8 °F -9.3 °F -2.2 °F 67% 30.30 in 10.0 mi SW 12.7 mph - N/A   Clear
3:55 PM 7.3 °F -8.6 °F -1.7 °F 67% 30.29 in 10.0 mi SW 12.7 mph - N/A   Clear
4:15 PM 6.8 °F -4.8 °F -2.0 °F 67% 30.29 in 10.0 mi SSW 6.9 mph - N/A   Scattered Clouds
4:35 PM 6.6 °F -7.1 °F -2.2 °F 67% 30.28 in 10.0 mi SW 9.2 mph - N/A   Mostly Cloudy
4:55 PM 6.4 °F -2.4 °F -1.5 °F 70% 30.27 in 10.0 mi SSW 4.6 mph - N/A   Mostly Cloudy
5:15 PM 7.5 °F -2.6 °F -0.4 °F 70% 30.26 in 10.0 mi SSW 5.8 mph - N/A   Clear
5:35 PM 8.4 °F -2.8 °F -0.2 °F 68% 30.25 in 10.0 mi SW 6.9 mph - N/A   Mostly Cloudy
5:55 PM 8.6 °F -2.6 °F -0.0 °F 68% 30.25 in 10.0 mi SW 6.9 mph - N/A   Overcast
6:15 PM 9.1 °F 0.8 °F 0.9 °F 69% 30.24 in 10.0 mi SSW 4.6 mph - N/A   Overcast
6:35 PM 9.7 °F -2.4 °F 2.5 °F 73% 30.23 in 10.0 mi SSW 8.1 mph - N/A   Overcast
6:55 PM 10.4 °F -1.5 °F 1.9 °F 69% 30.22 in 10.0 mi SSW 8.1 mph - N/A   Overcast
7:15 PM 10.9 °F -1.8 °F 2.7 °F 69% 30.21 in 10.0 mi South 9.2 mph - N/A   Overcast
7:35 PM 11.3 °F 1.9 °F 3.2 °F 70% 30.21 in 10.0 mi South 5.8 mph - N/A   Overcast
7:55 PM 11.8 °F 2.5 °F 4.3 °F 72% 30.20 in 10.0 mi South 5.8 mph - N/A   Overcast
8:15 PM 12.2 °F 0.7 °F 5.4 °F 74% 30.19 in 7.0 mi South 8.1 mph - N/A Snow Light Snow
8:35 PM 12.7 °F 2.4 °F 6.4 °F 76% 30.19 in 4.0 mi South 6.9 mph - N/A Snow Light Snow
8:55 PM 12.9 °F 3.8 °F 7.9 °F 80% 30.18 in 5.0 mi South 5.8 mph - N/A Snow Light Snow
9:15 PM 12.9 °F 2.6 °F 8.4 °F 82% 30.17 in 4.0 mi SSE 6.9 mph - N/A Snow Light Snow
9:35 PM 13.1 °F 7.1 °F 9.1 °F 84% 30.18 in 2.0 mi SSE 3.5 mph - N/A Snow Light Snow
9:55 PM 13.1 °F 7.1 °F 9.7 °F 86% 30.17 in 2.5 mi SSE 3.5 mph - N/A Snow Light Snow
10:15 PM 13.5 °F 7.5 °F 10.4 °F 88% 30.16 in 2.5 mi ESE 3.5 mph - N/A Snow Light Snow
10:35 PM 13.6 °F 7.7 °F 10.6 °F 88% 30.16 in 3.0 mi ESE 3.5 mph - N/A Snow Light Snow
10:55 PM 13.8 °F 8.0 °F 11.1 °F 89% 30.15 in 4.0 mi SE 3.5 mph - N/A Snow Light Snow
11:15 PM 14.2 °F 8.4 °F 11.5 °F 89% 30.14 in 2.0 mi SE 3.5 mph - N/A Snow Light Snow
11:35 PM 15.1 °F 7.7 °F 12.6 °F 90% 30.13 in 7.0 mi SSE 4.6 mph - N/A Snow Light Snow
11:55 PM 15.8 °F 6.1 °F 13.1 °F 89% 30.11 in 7.0 mi SSE 6.9 mph - N/A Snow Light Snow